Home > Weather > La-Chaux-de-Fonds > Past weeks

Flag for Switzerland Past Weather in La-Chaux-de-Fonds, Neuchâtel, Switzerland — Yesterday and Last 2 Weeks

Now
50 °F

Passing clouds.


Feels Like: 50 °F
Forecast: 43 / 61 °F
Wind: 1 mph from North

Location: Les Eplatures

Current Time: Jun 27, 2016 at 12:46:43 AM

Latest Report: Jun 26, 2016 at 11:50 PM


Visibility: N/A

Pressure: 30.21 "Hg (26.78 "Hg at 1000m altitude)

Humidity: 88%

Dew Point: 46 °F

Location of La-Chaux-de-FondsLocation

Past Weather in La-Chaux-de-Fonds — Graph

°F

La-Chaux-de-Fonds Temperature Yesterday

Maximum temperature yesterday: 61 °F (at 1:50 PM)
Minimum temperature yesterday: 43 °F (at 4:20 AM)
Average temperature yesterday: 53 °F

High & Low Weather Summary for the Past Weeks

 TemperatureHumidityPressure
High84 °F (Jun 23, 2:20 PM)100% (Jun 11, 11:50 PM)30.33 "Hg (Jun 11, 11:50 PM)
Low41 °F (Jun 20, 4:50 AM)27% (Jun 23, 6:50 PM)29.62 "Hg (Jun 15, 3:50 AM)
Average56 °F86%30.03 "Hg
* Reported Jun 11 11:20 PM — Jun 26 11:50 PM, La-Chaux-de-Fonds, Weather by CustomWeather, © 2016

Note: Actual official high and low records may vary slightly from our data, if they occured in-between our weather recording intervals... More about our weather records

Advertising

La-Chaux-de-Fonds Weather History for the Previous 24 Hours

Scroll right to see more
 ConditionsComfort  
Time TempWeatherWind HumidityBarometerVisibility
11:50 PM
Sun, Jun 26
50 °FPassing clouds.1 mph88%30.21 "HgN/A
11:20 PM50 °FClear.1 mph88%30.21 "HgN/A
10:50 PM50 °FSunny.1 mph88%30.21 "Hg10 mi
10:20 PM50 °FSunny.1 mph88%30.21 "Hg10 mi
9:50 PM54 °FSunny.2 mph77%30.18 "Hg10 mi
9:20 PM54 °FClear.2 mph77%30.18 "HgN/A
8:50 PM55 °FPartly sunny.2 mph72%30.18 "HgN/A
8:20 PM55 °FPartly sunny.3 mph72%30.18 "HgN/A
7:50 PM59 °FBroken clouds.2 mph63%30.18 "HgN/A
7:20 PM57 °FPartly sunny.5 mph72%30.15 "HgN/A
6:50 PM59 °FPartly sunny.5 mph68%30.15 "HgN/A
6:20 PM59 °FOvercast.3 mph68%30.15 "HgN/A
5:50 PM59 °FBroken clouds.6 mph68%30.15 "HgN/A
5:20 PM59 °FPartly sunny.8 mph68%30.15 "HgN/A
4:50 PM61 °FBroken clouds.7 mph59%30.15 "HgN/A
4:20 PM59 °FBroken clouds.5 mph68%30.15 "HgN/A
3:50 PM59 °FBroken clouds.6 mph63%30.15 "HgN/A
3:20 PM59 °FPartly sunny.7 mph68%30.15 "HgN/A
2:50 PM59 °FPartly sunny.8 mph68%30.15 "HgN/A
2:20 PM59 °FPartly sunny.7 mph68%30.15 "HgN/A
1:50 PM61 °FOvercast.1 mph55%30.15 "HgN/A
1:20 PM59 °FOvercast.6 mph59%30.15 "HgN/A
12:50 PM59 °FOvercast.7 mph59%30.15 "HgN/A
12:20 PM57 °FBroken clouds.7 mph59%30.15 "HgN/A
11:50 AM59 °FBroken clouds.3 mph63%30.15 "HgN/A
11:20 AM57 °FBroken clouds.5 mph63%30.15 "HgN/A
10:50 AM57 °FBroken clouds.3 mph67%30.15 "HgN/A
10:20 AM57 °FPartly sunny.3 mph72%30.15 "HgN/A
9:50 AM57 °FPartly sunny.2 mph63%30.15 "HgN/A
9:20 AM57 °FSunny.1 mph67%30.15 "Hg10 mi
8:50 AM54 °FSunny.2 mph82%30.15 "Hg10 mi
8:20 AM52 °FSunny.2 mph82%30.15 "Hg10 mi
7:50 AM48 °FSunny.2 mph94%30.15 "Hg10 mi
7:20 AM46 °FClear.2 mph93%30.15 "HgN/A
6:50 AM45 °FClear.1 mph100%30.15 "Hg10 mi
6:20 AM45 °FClear.1 mph93%30.15 "Hg10 mi
5:50 AM43 °FClear.1 mph100%30.15 "Hg10 mi
5:20 AM43 °FClear.1 mph93%30.12 "Hg10 mi
4:50 AM43 °FClear.1 mph100%30.12 "Hg10 mi
4:20 AM43 °FClear.No wind100%30.15 "Hg10 mi
3:50 AM45 °FClear.1 mph93%30.12 "Hg10 mi
3:20 AM45 °FClear.No wind93%30.15 "Hg10 mi
2:50 AM45 °FClear.No wind100%30.15 "Hg10 mi
2:20 AM46 °FClear.No wind93%30.15 "Hg10 mi
1:50 AM46 °FClear.1 mph93%30.15 "Hg10 mi
1:20 AM46 °FCool.No wind93%30.15 "HgN/A
12:50 AM48 °FCool.2 mph94%30.15 "HgN/A
12:20 AM50 °FClear.1 mph94%30.15 "HgN/A
Weather by CustomWeather, © 2016

See weather overviewHow to use our weather pages